Jacksonville, FL

11:54 PM EDT on April 24, 2017 (GMT -0400)
Jacksonville International

Weather History for KJAX - November, 2011

Change the Weather History Date:

Thursday, November 3, 2011

  Actual Average Record
Temperature  
Mean Temperature 67 °F 65 °F  
Max Temperature 80 °F 76 °F 89 °F (2015)
Min Temperature 54 °F 54 °F 30 °F (1954)
Degree Days  
Heating Degree Days 0 3  
Month to date heating degree days 10 8  
Since 1 July heating degree days 66 36  
Cooling Degree Days 2 3  
Month to date cooling degree days 2 9  
Year to date cooling degree days 2726 2592  
Growing Degree Days 16 (Base 50)    
Moisture  
Dew Point 58 °F    
Average Humidity 73    
Maximum Humidity 100    
Minimum Humidity 45    
Precipitation  
Precipitation 0.00 in 0.07 in 2.50 in (1894)
Month to date precipitation 0.00 0.22  
Year to date precipitation 44.64 47.70  
Snow  
Snow 0.00 in 0.00 in 0.00 in (2002)
Month to date snowfall 0.0 0.0  
Since 1 July snowfall 0.0 0.0  
Since 1 September snowfall 0.0 0.0  
Snow Depth 0.00 in    
Sea Level Pressure  
Sea Level Pressure 30.08 in    
Wind  
Wind Speed 5 mph (SSE)    
Max Wind Speed 12 mph    
Max Gust Speed 15 mph    
Visibility 10 miles    
Events      
T = Trace of Precipitation, MM = Missing Value Source: NWS Daily Summary

Daily Weather History Graph

Daily Weather History Graph

Search for Another Location

Airport or City:

Trip Planner

Search our weather history database for the weather conditions in past years. The results will help you decide how hot, cold, wet, or windy it might be!

Date:

Astronomy

Nov. 03, 2011 Rise Set
Actual Time 7:42 AM EDT 6:37 PM EDT
Civil Twilight 7:17 AM EDT 7:02 PM EDT
Nautical Twilight 6:49 AM EDT 7:30 PM EDT
Astronomical Twilight 6:21 AM EDT 7:59 PM EDT
Moon 2:35 PM EDT (11/3) 1:21 AM EDT (11/3)
Length of Visible Light 11h 44m
Length of Day
10h 54m
First Quarter, 60% of the Moon is Illuminated
Nov 3
First Quarter
Nov 10
Full
Nov 18
Last Quarter
Nov 25
New
Dec 2
First Quarter

Hourly Weather History & Observations

Time (EDT) Temp. Dew Point Humidity Pressure Visibility Wind Dir Wind Speed Gust Speed Precip Events Conditions
12:56 AM 60.1 °F 57.0 °F 90% 30.21 in 10.0 mi NNW 5.8 mph - N/A   Overcast
1:41 AM 60.8 °F 57.2 °F 88% 30.20 in 10.0 mi NNW 8.1 mph - N/A   Overcast
1:56 AM 60.1 °F 57.0 °F 90% 30.19 in 10.0 mi NNW 8.1 mph - N/A   Overcast
2:56 AM 60.1 °F 57.0 °F 90% 30.18 in 10.0 mi North 5.8 mph - N/A   Overcast
3:56 AM 59.0 °F 57.0 °F 93% 30.17 in 10.0 mi North 4.6 mph - N/A   Overcast
4:56 AM 55.9 °F 55.0 °F 97% 30.15 in 8.0 mi Calm Calm - N/A   Overcast
5:56 AM 55.0 °F 54.0 °F 96% 30.15 in 8.0 mi NW 3.5 mph - N/A   Scattered Clouds
6:56 AM 54.0 °F 53.1 °F 97% 30.14 in 8.0 mi Calm Calm - N/A   Partly Cloudy
7:56 AM 54.0 °F 53.1 °F 97% 30.15 in 7.0 mi Calm Calm - N/A   Partly Cloudy
8:56 AM 57.0 °F 55.0 °F 93% 30.16 in 8.0 mi Calm Calm - N/A   Scattered Clouds
9:56 AM 63.0 °F 57.9 °F 84% 30.17 in 10.0 mi Calm Calm - N/A   Mostly Cloudy
10:56 AM 69.1 °F 60.1 °F 73% 30.16 in 10.0 mi NE 4.6 mph - N/A   Mostly Cloudy
11:56 AM 73.9 °F 61.0 °F 64% 30.14 in 10.0 mi Calm Calm - N/A   Mostly Cloudy
12:56 PM 77.0 °F 59.0 °F 54% 30.11 in 10.0 mi SSE 8.1 mph - N/A   Mostly Cloudy
1:56 PM 78.1 °F 59.0 °F 52% 30.05 in 10.0 mi South 5.8 mph - N/A   Scattered Clouds
2:56 PM 78.1 °F 55.9 °F 46% 30.01 in 10.0 mi SW 8.1 mph - N/A   Mostly Cloudy
3:56 PM 77.0 °F 55.9 °F 48% 29.99 in 10.0 mi Calm Calm - N/A   Mostly Cloudy
4:56 PM 77.0 °F 57.9 °F 52% 29.98 in 10.0 mi ESE 4.6 mph - N/A   Mostly Cloudy
5:56 PM 75.0 °F 57.9 °F 55% 29.97 in 10.0 mi SE 8.1 mph - N/A   Scattered Clouds
6:56 PM 69.1 °F 59.0 °F 70% 29.96 in 10.0 mi SSE 8.1 mph - N/A   Partly Cloudy
7:56 PM 66.0 °F 59.0 °F 78% 29.95 in 10.0 mi South 5.8 mph - N/A   Partly Cloudy
8:56 PM 66.0 °F 60.1 °F 81% 29.94 in 10.0 mi SSE 8.1 mph - N/A   Partly Cloudy
9:56 PM 69.1 °F 60.1 °F 73% 29.94 in 10.0 mi South 10.4 mph - N/A   Scattered Clouds
10:56 PM 68.0 °F 60.1 °F 76% 29.94 in 10.0 mi South 8.1 mph - N/A   Mostly Cloudy
11:56 PM 66.0 °F 60.1 °F 81% 29.91 in 10.0 mi South 9.2 mph - N/A   Mostly Cloudy